Regional Weather Roundup
Issued by NWS

Home | Current Version | Previous Version | Graphics & Text | Print | Product List | Glossary On
Versions: 1 2 3 4 5 6 7 8 9 10 11 12 13 14 15 16 17 18 19 20 21 22 23 24 25 26 27 28 29 30 31 32 33 34 35 36 37 38 39 40 41 42 43 44 45 46 47 48 49 50
000
ASUS43 KMPX 211810
RWRMN
WEATHER ROUNDUP FOR MINNESOTA
NATIONAL WEATHER SERVICE TWIN CITIES/CHANHASSEN MN
100 PM CDT MON AUG 21 2017


NOTE: "FAIR" INDICATES FEW OR NO CLOUDS BELOW 12,000 FEET WITH NO
SIGNIFICANT WEATHER AND/OR OBSTRUCTIONS TO VISIBILITY. N/A MEANS
CURRENT SKY AND/OR WEATHER CONDITIONS ARE NOT AVAILABLE.

MNZ060>063-068>070-211900-
   Twin Cities Metro

CITY           SKY/WX    TMP DP  RH WIND       PRES   REMARKS
TWIN CITIES    PTSUNNY   78  62  57 W7        29.98R
6HR MIN TEMP:  68; 6HR MAX TEMP:  80;

ST PAUL        MOSUNNY   77  66  68 VRB3      29.97F
CRYSTAL        CLOUDY    75  61  61 NW6       29.97R
BLAINE         CLOUDY    77  64  65 NW7       29.99R
LAKEVILLE      SUNNY     73  66  78 CALM      29.98S
EDEN PRAIRIE   PTSUNNY   78  65  63 SW5       29.97S
6HR MIN TEMP:  66; 6HR MAX TEMP:  80;

SOUTH ST PAUL  MOSUNNY   76  65  67 S3        29.97S
LAKE ELMO      PTSUNNY   77  68  73 CALM      29.99S
$$
MNZ001>005-007-008-013>017-022>024-027-028-211900-
   Northwest Minnesota

CITY           SKY/WX    TMP DP  RH WIND       PRES   REMARKS
BEMIDJI        CLOUDY    64  52  63 SE5       29.94F
HALLOCK        LGT RAIN  64  57  77 CALM      29.94F
ROSEAU         CLOUDY    63  57  82 NE5       29.94F
WARROAD        PTSUNNY   63  57  82 CALM      29.96F
THIEF RVR FALL CLOUDY    66  52  60 S7        29.95S
CROOKSTON      CLOUDY    70  54  56 SW10      29.93S
FOSSTON        CLOUDY    64  52  63 S8        29.95S
DETROIT LAKES  CLOUDY    66  57  72 S8        29.94F
MOORHEAD       CLOUDY    68  57  68 S10       29.91F
PARK RAPIDS    CLOUDY    67  55  65 S10       29.93F
MAHNOMEN       MOCLDY    66  55  67 CALM      29.93F
$$
MNZ006-009>011-018-025>026-211900-
   North Central Minnesota

CITY           SKY/WX    TMP DP  RH WIND       PRES   REMARKS
BAUDETTE       CLOUDY    65  56  72 NE5       29.95F
FLAG ISLAND    CLOUDY    63  52  67 CALM      29.95F
INTL FALLS     CLOUDY    67  54  63 SE3       29.97F
6HR MIN TEMP:  45; 6HR MAX TEMP:  70;

WASKISH        CLOUDY    66  55  68 CALM      29.95F
BIG FORK       CLOUDY    66  55  68 CALM      29.97F
LONGVILLE      CLOUDY    61  57  88 CALM      29.94F
GRAND RAPIDS   CLOUDY    60  56  86 CALM      29.97F
CRANE LAKE     MOSUNNY   64  57  77 CALM      30.02F
ORR            CLOUDY    63  55  77 CALM      29.97F
COOK           CLOUDY    64  55  72 SE3       30.01F
WALKER         CLOUDY    63  55  76 CALM      29.93F
$$
MNZ012-019>021-037-211900-
   Northeast Minnesota

CITY           SKY/WX    TMP DP  RH WIND       PRES   REMARKS
DULUTH         CLOUDY    65  58  78 N3        30.00F
6HR MIN TEMP:  54; 6HR MAX TEMP:  69; 6HR PCP: TRACE;

ELY            CLOUDY    66  54  63 CALM      30.02F
HIBBING        LGT RAIN  60  58  92 SE7       29.99F
EVELETH        LGT RAIN  63  54  71 CALM      30.03F
DULUTH HARBOR  CLOUDY    66  61  82 NE3       30.00F
TWO HARBORS    CLOUDY    68  63  83 CALM      29.99F
GRAND MARAIS     N/A     67  55  65 CALM      29.99F
G MARAIS ARPRT CLOUDY    63  48  59 CALM      30.05F
$$
MNZ029>031-032-039>041-046>048-054>057-064-211900-
   West Central Minnesota

CITY           SKY/WX    TMP DP  RH WIND       PRES   REMARKS
FERGUS FALLS   CLOUDY    68  59  73 SE6       29.90F
WHEATON        CLOUDY    64  59  82 S5        29.92S
MORRIS         CLOUDY    66  63  88 SE9       29.87F
ALEXANDRIA     CLOUDY    66  59  78 SE9       29.93F
ELBOW LAKE     FAIR      66  60  79 E9        29.90F
WADENA         CLOUDY    66  57  72 S6        29.93F
GLENWOOD       CLOUDY    64  61  88 SE8       29.92F
APPLETON       CLOUDY    64  61  88 E3        29.87F
BENSON         CLOUDY    64  63  94 E3        29.90F
ORTONVILLE     CLOUDY    63  59  88 MISG      29.90F
MADISON        CLOUDY    64  64 100 S8        29.90F
WILLMAR        FAIR      66  64  94 SE14      29.86F
$$
MNZ033>034-036-042>043-049>051-058-059-211900-
   Central Minnesota

CITY           SKY/WX    TMP DP  RH WIND       PRES   REMARKS
ST CLOUD       LGT RAIN  64  63  96 E8        29.90F
6HR MIN TEMP:  58; 6HR MAX TEMP:  70; 6HR PCP:  0.09;

SAUK CENTRE    FAIR      64  60  88 SE7       29.93F
PAYNESVILLE    CLOUDY    64  63  97 SE5       29.91F
AITKIN         CLOUDY    63  57  82 CALM      29.94F
PINE RIVER     CLOUDY    63  55  77 SE8       29.96F
BRAINERD       CLOUDY    66  59  78 SE7       29.94F
STAPLES        CLOUDY    64  55  72 SE6       29.93F
LONG PRAIRIE   PTSUNNY   64  57  77 E7        29.93F
LITTLE FALLS   PTSUNNY   64  55  72 SE3       29.94F
LITCHFIELD     RAIN      66  64  94 SE8       29.96F
BUFFALO        LGT RAIN  67  63  85 E3        29.97F
MAPLE LAKE     LGT RAIN  66  64  92 E3        29.95F
HUTCHINSON     CLOUDY    70  66  88 N3        29.99R
$$
MNZ037-044-045-052-053-211900-
   East Central Minnesota

CITY           SKY/WX    TMP DP  RH WIND       PRES   REMARKS
PRINCETON      RAIN      68  63  83 E8        29.95F
MORA           LGT RAIN  64  59  82 SE3       29.99F
CAMBRIDGE      LGT RAIN  70  63  78 SE5       29.97F
RUSH CITY      LGT RAIN  71  62  73 CALM      29.99F
MOOSE LAKE     CLOUDY    63  57  82 CALM      29.96F
HINCKLEY       LGT RAIN  68  63  83 E5        29.97F
CLOQUET        CLOUDY    64  55  72 CALM      29.99F
MCGREGOR       CLOUDY    63  57  82 E6        29.97F
$$
MNZ071>073-080-081-089-090-097-098-211900-
   Southwest Minnesota

CITY           SKY/WX    TMP DP  RH WIND       PRES   REMARKS
MONTEVIDEO     CLOUDY    63  63 100 W12G23    29.89F
GRANITE FALLS  CLOUDY    65  64  97 SE14      29.92F
CANBY          CLOUDY    65  62  92 S9        29.92F
MARSHALL       CLOUDY    62  61  96 S8        29.94F
REDWOOD FALLS  LGT RAIN  65  63  93 SE8       29.95F FOG
OLIVIA         TSTM      64  63  94 S8        29.97F VSB 1
PIPESTONE      CLOUDY    66  63  88 E5        29.97F
WINDOM         CLOUDY    70  66  88 S5        30.01S
WORTHINGTON    TSTM      66  64  94 S5        29.99F FOG
JACKSON        TSTM      68  63  83 CALM      30.04R VSB 1
TRACY          TSTM      63  64 100 SE6       29.99F
SLAYTON        CLOUDY    64  59  83 N12       30.04S
$$
MNZ065>067-074>077-082>085-091>093-211900-
   South Central Minnesota

CITY           SKY/WX    TMP DP  RH WIND       PRES   REMARKS
MANKATO        CLOUDY    74  66  76 SW5       29.97F
NEW ULM        CLOUDY    70  66  88 W3        29.97F
ST JAMES       CLOUDY    73  66  78 W9        30.02R
FAIRMONT       LGT RAIN  73  67  81 W13       30.02R
GLENCOE        CLOUDY    75  69  80 S3        29.97F
FARIBAULT      MOSUNNY   75  66  73 CALM      29.99R
OWATONNA       MOSUNNY   77  66  69 S3        29.99R
WASECA         MOSUNNY   77  64  65 CALM      30.00S
ALBERT LEA     CLOUDY    77  63  61 CALM      29.99S
$$
MNZ078>079-086>088-094>096-211900-
   Southeast Minnesota

CITY           SKY/WX    TMP DP  RH WIND       PRES   REMARKS
ROCHESTER      SUNNY     76  67  73 SE8       29.98F
6HR MIN TEMP:  64; 6HR MAX TEMP:  79;

RED WING       SUNNY     75  64  69 SE5       29.96F
STANTON        MOSUNNY   76  67  73 N3        29.97S
DODGE CENTER   SUNNY     77  64  65 CALM      29.99S
WINONA         CLOUDY    77  64  65 CALM      29.97F
AUSTIN         CLOUDY    75  63  64 CALM      29.98S
PRESTON        CLOUDY    75  63  64 SE8       29.99F
$$
ABBREVIATIONS USED IN REMARKS
   TC - TEMPERATURES IN CELSIUS
  WCI - WIND CHILL INDEX
   HX - HEAT INDEX
  VSB - VISIBILITY
$$



USA.gov is the U.S. government's official web portal to all federal, state and local government web resources and services.